Weather History for KOLF - May, 2013

Change the Weather History Date:

Monday, May 13, 2013

  Actual Average Record
Temperature  
Mean Temperature 73 °F -  
Max Temperature 91 °F 69 °F 91 °F (2001)
Min Temperature 54 °F 38 °F 24 °F (2000)
Degree Days  
Heating Degree Days 0    
Cooling Degree Days 8    
Growing Degree Days 22 (Base 50)    
Moisture  
Dew Point 46 °F    
Average Humidity 45    
Maximum Humidity 84    
Minimum Humidity 17    
Precipitation  
Precipitation 0.18 in 0.05 in 0.65 in (2007)
Month to date precipitation 0.37 0.53  
Year to date precipitation 1.35 2.45  
Sea Level Pressure  
Sea Level Pressure 29.70 in    
Wind  
Wind Speed 11 mph (WSW)    
Max Wind Speed 28 mph    
Max Gust Speed 47 mph    
Visibility 10 miles    
Events Rain , Thunderstorm    
T = Trace of Precipitation, MM = Missing Value Source: NWS Daily Summary

Daily Weather History Graph

Daily Weather History Graph

Search for Another Location

Airport or City:

Trip Planner

Search our weather history database for the weather conditions in past years. The results will help you decide how hot, cold, wet, or windy it might be!

Date:

Astronomy

May. 13, 2013 Rise Set
Actual Time 5:25 AM MDT 8:32 PM MDT
Civil Twilight 4:48 AM MDT 9:09 PM MDT
Nautical Twilight 4:00 AM MDT 9:57 PM MDT
Astronomical Twilight 3:01 AM MDT 10:58 PM MDT
Moon 8:12 AM MDT (5/13) 11:43 PM MDT (5/13)
Length of Visible Light 16h 21m
Length of Day
15h 07m
Waxing Crescent, 12% of the Moon is Illuminated
May 13
Waxing Crescent
May 17
First Quarter
May 24
Full
May 31
Last Quarter
Jun 8
New

Hourly Weather History & Observations

Time (MDT) Temp. Dew Point Humidity Pressure Visibility Wind Dir Wind Speed Gust Speed Precip Events Conditions
12:53 AM 57.9 °F 41.0 °F 53% 29.72 in 10.0 mi SW 5.8 mph - N/A   Clear
1:53 AM 55.9 °F 41.0 °F 57% 29.73 in 10.0 mi WSW 8.1 mph - N/A   Clear
2:53 AM 57.0 °F 41.0 °F 55% 29.73 in 10.0 mi SW 6.9 mph - N/A   Clear
3:53 AM 57.0 °F 41.0 °F 55% 29.74 in 10.0 mi WSW 10.4 mph - N/A   Clear
4:53 AM 60.1 °F 42.1 °F 51% 29.76 in 10.0 mi WSW 12.7 mph - N/A   Clear
5:53 AM 55.9 °F 42.1 °F 60% 29.79 in 10.0 mi Calm Calm - N/A   Clear
6:53 AM 60.1 °F 44.1 °F 55% 29.81 in 10.0 mi West 8.1 mph - N/A   Clear
7:53 AM 64.0 °F 46.0 °F 52% 29.82 in 10.0 mi WSW 11.5 mph - N/A   Clear
8:53 AM 71.1 °F 46.0 °F 41% 29.82 in 10.0 mi WSW 11.5 mph - N/A   Clear
9:53 AM 75.9 °F 45.0 °F 33% 29.81 in 10.0 mi West 13.8 mph 21.9 mph N/A   Clear
10:53 AM 80.1 °F 44.1 °F 28% 29.80 in 10.0 mi West 18.4 mph 26.5 mph N/A   Clear
11:53 AM 82.9 °F 45.0 °F 26% 29.79 in 10.0 mi WSW 17.3 mph 28.8 mph N/A   Clear
12:53 PM 86.0 °F 42.1 °F 21% 29.76 in 10.0 mi West 23.0 mph 34.5 mph N/A   Clear
2:53 PM 90.0 °F 39.0 °F 17% 29.71 in 9.0 mi WNW 27.6 mph 38.0 mph N/A   Clear
3:53 PM 90.0 °F 39.9 °F 17% 29.68 in 10.0 mi West 19.6 mph 34.5 mph N/A   Clear
4:53 PM 90.0 °F 39.0 °F 17% 29.65 in 10.0 mi West 17.3 mph 27.6 mph N/A   Clear
5:53 PM 89.6 °F 39.2 °F 17% 29.66 in 10.0 mi West 10.4 mph 18.4 mph N/A   Clear
6:53 PM 86.0 °F 41.0 °F 20% 29.59 in 10.0 mi WSW 9.2 mph - N/A   Scattered Clouds
7:53 PM 80.1 °F 44.1 °F 28% 29.57 in 10.0 mi Calm Calm - N/A   Mostly Cloudy
8:07 PM 78.8 °F 46.4 °F 32% 29.64 in 10.0 mi WSW 21.9 mph 41.4 mph 0.00 in Rain , Thunderstorm Light Rain
8:20 PM 69.8 °F 53.6 °F 56% 29.71 in 7.0 mi WSW 24.2 mph 47.2 mph 0.03 in Rain , Thunderstorm Light Thunderstorms and Rain
8:44 PM 71.6 °F 51.8 °F 50% 29.60 in 8.0 mi SE 10.4 mph 23.0 mph 0.05 in Rain Rain
8:53 PM 69.1 °F 53.1 °F 57% 29.56 in 10.0 mi ESE 4.6 mph - 0.05 in Rain Light Rain
9:53 PM 61.0 °F 55.0 °F 81% 29.54 in 10.0 mi ESE 8.1 mph - 0.00 in   Clear
10:53 PM 63.0 °F 57.0 °F 81% 29.55 in 10.0 mi North 13.8 mph - N/A   Clear
11:01 PM 64.4 °F 55.4 °F 73% 29.59 in 10.0 mi North 12.7 mph 24.2 mph N/A Thunderstorm Partly Cloudy
11:53 PM 62.1 °F 57.0 °F 84% 29.68 in 9.0 mi NW 26.5 mph 33.4 mph 0.07 in Rain , Thunderstorm Light Rain